Regional Weather Roundup
Issued by NWS

Home | Current Version | Previous Version | Graphics & Text | Print | Product List | Glossary On
Versions: 1 2 3 4 5 6 7 8 9 10 11 12 13 14 15 16 17 18 19 20 21 22 23 24 25 26
000
ASUS45 KPSR 261210
RWRAZ

ARIZONA HOURLY REGIONAL WEATHER ROUNDUP
NATIONAL WEATHER SERVICE PHOENIX AZ
500 AM MST THU MAY 26 2016

NOTE: FAIR INDICATES FEW OR NO CLOUDS BELOW 12,000 FEET WITH NO
SIGNIFICANT WEATHER AND/OR OBSTRUCTIONS TO VISIBILITY.

AZZ001>003-036-261300-
NORTHWEST ARIZONA

CITY           SKY/WX    TMP DP  RH WIND       PRES   REMARKS
BULLHEAD CITY  CLEAR     64  32  29 CALM      29.89R
KINGMAN        CLEAR     48  50 100 MISG      29.94S
6HR MIN TEMP:  46; 6HR MAX TEMP:  59;

$$

AZZ004>008-015-016-018-261300-
NORTH CENTRAL ARIZONA

CITY           SKY/WX    TMP DP  RH WIND       PRES   REMARKS
GRAND CANYON   MOCLDY    35  25  66 CALM      30.03S
6HR MIN TEMP:  34; 6HR MAX TEMP:  41;

WILLIAMS       CLOUDY    37  25  60 S6        30.10S WCI  33
PRESCOTT       PTCLDY    45  25  45 S9        29.99S
6HR MIN TEMP:  44; 6HR MAX TEMP:  55;

FLAGSTAFF      MOCLDY    39  25  57 VRB3      30.03S
6HR MIN TEMP:  32; 6HR MAX TEMP:  39;

PAYSON         PTCLDY    46  19  34 CALM      30.03R
PAGE           PTCLDY    61  26  26 VRB6      29.88S
6HR MIN TEMP:  61; 6HR MAX TEMP:  68;

$$

AZZ009>014-017-261300-
NORTHEAST ARIZONA

CITY           SKY/WX    TMP DP  RH WIND       PRES   REMARKS
WINSLOW        PTCLDY    47  24  40 S12       29.97S
6HR MIN TEMP:  45; 6HR MAX TEMP:  53;

SAINT JOHNS    CLEAR     41  15  35 S6        30.01F
6HR MIN TEMP:  41; 6HR MAX TEMP:  57;

WINDOW ROCK    CLEAR     35  17  47 SW5       30.03F WCI  31
6HR MIN TEMP:  33; 6HR MAX TEMP:  52;

SHOW LOW       CLEAR     36  12  38 CALM      30.05R
$$

AZZ023-261300-
GREATER PHOENIX AREA

CITY           SKY/WX    TMP DP  RH WIND       PRES   REMARKS
PHOENIX        PTCLDY    67  37  33 E10       29.89R
6HR MIN TEMP:  67; 6HR MAX TEMP:  76;

BUCKEYE        CLEAR     59  37  44 NE6       29.91S
LUKE AFB       PTCLDY    64  38  38 SW9       29.88S
6HR MIN TEMP:  63; 6HR MAX TEMP:  75;

DEER VALLEY    PTCLDY    63  33  32 SE3       29.90S
6HR MIN TEMP:  63; 6HR MAX TEMP:  73;

SCOTTSDALE     PTCLDY    64  30  27 SE3       29.92S
6HR MIN TEMP:  63; 6HR MAX TEMP:  74;

MESA-GATEWAY   PTCLDY    61  28  29 E7        29.92S
$$

AZZ027-028-261300-
SOUTHWEST MARICOPA COUNTY AND PINAL COUNTY

CITY           SKY/WX    TMP DP  RH WIND       PRES   REMARKS
CASA GRANDE    CLEAR     59  30  33 S6        29.92S
6HR MIN TEMP:  55; 6HR MAX TEMP:  70;

GILA BEND      FAIR      62  35  37 CALM      29.90F
6HR MIN TEMP:  61; 6HR MAX TEMP:  71;

$$

AZZ503-504-507>509-261300-
SOUTHEAST ARIZONA

CITY           SKY/WX    TMP DP  RH WIND       PRES   REMARKS
TUCSON         CLEAR     57  24  28 S3        29.99R
6HR MIN TEMP:  57; 6HR MAX TEMP:  70;

DAVIS-MONTHAN  CLEAR     56  24  29 CALM      29.97S
6HR MIN TEMP:  54; 6HR MAX TEMP:  68;

NOGALES        CLEAR     48  26  42 E5        30.00S
6HR MIN TEMP:  48; 6HR MAX TEMP:  64;

SIERRA VISTA   CLEAR     51  25  37 VRB1      30.03S
6HR MIN TEMP:  50; 6HR MAX TEMP:  64;

DOUGLAS        CLEAR     60  23  24 CALM      30.01S
6HR MIN TEMP:  57; 6HR MAX TEMP:  83;

SAFFORD        CLEAR     62  15  16 NW13      29.95R
6HR MIN TEMP:  62; 6HR MAX TEMP:  71;

$$

AZZ020-021-025-026-031-261300-
SOUTHWEST ARIZONA

CITY           SKY/WX    TMP DP  RH WIND       PRES   REMARKS
YUMA           CLEAR     62  42  47 SW5       29.91R
6HR MIN TEMP:  59; 6HR MAX TEMP:  66;

$$

CAZ031-033-041-043-047-048-061-261300-
SOUTHERN CALIFORNIA

CITY           SKY/WX    TMP DP  RH WIND       PRES   REMARKS
DOWNTOWN L.A.  PTCLDY    58  52  80 CALM      30.04S
6HR MIN TEMP:  58; 6HR MAX TEMP:  60;

L.A. AIRPORT   PTCLDY    56  51  84 E5        30.04S
6HR MIN TEMP:  55; 6HR MAX TEMP:  58;

SAN DIEGO      MOCLDY    63  51  65 SW3       30.07S
6HR MIN TEMP:  62; 6HR MAX TEMP:  64;

BURBANK        CLEAR     54  48  80 CALM      30.03F
6HR MIN TEMP:  54; 6HR MAX TEMP:  58;

ONTARIO        PTCLDY    54  49  83 CALM      30.04F
6HR MIN TEMP:  52; 6HR MAX TEMP:  57;

RIVERSIDE      CLEAR     54  48  80 CALM      30.05F
6HR MIN TEMP:  53; 6HR MAX TEMP:  60;

PALM SPRINGS     N/A     63  43  48 MISG      29.92R
EL CENTRO NAS  CLEAR     62  40  44 W12       29.93R
6HR MIN TEMP:  62; 6HR MAX TEMP:  66;

IMPERIAL       CLEAR     60  42  51 W7        29.90R
6HR MIN TEMP:  58; 6HR MAX TEMP:  66;

BLYTHE         CLEAR     61  44  53 CALM      29.88R
6HR MIN TEMP:  59; 6HR MAX TEMP:  71;

NEEDLES        CLEAR     67  38  34 CALM      29.87R
6HR MIN TEMP:  66; 6HR MAX TEMP:  75;

$$

NVZ020-UTZ003-261300-
SOUTHERN NEVADA-UTAH

CITY           SKY/WX    TMP DP  RH WIND       PRES   REMARKS
LAS VEGAS      PTCLDY    62  34  35 S5        29.87R
6HR MIN TEMP:  62; 6HR MAX TEMP:  70;

SALT LAKE CITY CLEAR     49  44  83 W5        29.99S
6HR MIN TEMP:  48; 6HR MAX TEMP:  57;

$$

NMZ009-TXZ055-261300-
NEW MEXICO-WEST TEXAS

CITY           SKY/WX    TMP DP  RH WIND       PRES   REMARKS
ALBUQUERQUE    CLEAR     51  15  23 SE6       29.98S
6HR MIN TEMP:  49; 6HR MAX TEMP:  61;

EL PASO        CLEAR     71  27  19 W17G29    29.96R
6HR MIN TEMP:  71; 6HR MAX TEMP:  79;

$$


........................KEY........................
SKY/WX - SKY CONDITION/WEATHER
TMP    - TEMPERATURE IN FAHRENHEIT
DP     - DEW POINT IN FAHRENHEIT
RH     - RELATIVE HUMIDITY IN PERCENT
WIND   - DIRECTION AND SPEED IN MILES PER HOUR (MPH)
VRB    - VARIABLE WIND DIRECTION
PRES   - MEAN SEA LEVEL PRESSURE IN INCHES OF MERCURY
         F - FALLING PRESSURE   R - RISING PRESSURE
         S - STEADY PRESSURE
VSB    - VISIBILITY IN MILES
HX     - HEAT INDEX IN FAHRENHEIT
WCI    - WIND CHILL INDEX IN FAHRENHEIT
TC     - TEMPERATURE IN CELSIUS WHICH IS ALSO KNOWN AS
         TEMPERATURE IN CENTIGRADE
AFB    - AIR FORCE BASE
         LUKE AFB IS LUKE AIR FORCE BASE
         DAVIS-MONTHAN IS DAVIS-MONTHAN AIR FORCE BASE
NAS    - NAVAL AIR STATION
         EL CENTRO NAS IS EL CENTRO NAVAL AIR STATION
N/A    - NOT AVAILABLE





USA.gov is the U.S. government's official web portal to all federal, state and local government web resources and services.